When you browse on this site, cookies collect data to enhance your experience and personalize the content and advertising you see.
Visit our Privacy Policy to learn more. By continuing to use the site, you agree to this use of cookies and data.
  • In Spain
  • List of Countries
  • For 7 days
  • Water Temperature
  • Weather Map
  • Weather Widgets
  • user-avatar
    Login

    Hourly Weather Buenos Aires

    Today, 17 October, Thursday

    Time Temperature Precipitation Wind Pressure Humidity
    00:00 +16°C° 0.6 mm 7 mps 762 mmHg 88%
    01:00 +16°C° 0.6 mm 7 mps 762 mmHg 88%
    02:00 +15°C° 0 mm 7 mps 762 mmHg 88%
    03:00 +16°C° 0.6 mm 7 mps 761 mmHg 89%
    04:00 +16°C° 0.6 mm 6 mps 761 mmHg 90%
    05:00 +16°C° 0.6 mm 6 mps 761 mmHg 90%
    06:00 +16°C° 0.7 mm 6 mps 761 mmHg 91%
    07:00 +16°C° 0.7 mm 6 mps 761 mmHg 91%
    08:00 +16°C° 0.7 mm 5 mps 761 mmHg 92%
    09:00 +16°C° 1.4 mm 5 mps 760 mmHg 92%
    10:00 +17°C° 1.4 mm 4 mps 760 mmHg 92%
    11:00 +17°C° 1.4 mm 4 mps 760 mmHg 92%
    12:00 +17°C° 1.2 mm 3 mps 759 mmHg 93%
    13:00 +17°C° 1.2 mm 2 mps 759 mmHg 94%
    14:00 +18°C° 1.2 mm 1 mps 759 mmHg 95%
    15:00 +18°C° 0.2 mm 1 mps 759 mmHg 95%
    16:00 +19°C° 0.2 mm 1 mps 758 mmHg 95%
    17:00 +19°C° 0.2 mm 1 mps 758 mmHg 94%
    18:00 +17°C° 0 mm 2 mps 759 mmHg 94%
    19:00 +17°C° 0 mm 2 mps 759 mmHg 95%
    20:00 +16°C° 0 mm 2 mps 760 mmHg 95%
    21:00 +16°C° 0 mm 3 mps 760 mmHg 94%
    22:00 +15°C° 0 mm 4 mps 760 mmHg 92%
    23:00 +15°C° 0 mm 5 mps 760 mmHg 91%

    Tomorrow, 18 October, Friday

    Time Temperature Precipitation Wind Pressure Humidity
    00:00 +14°C° 0 mm 5 mps 760 mmHg 90%
    01:00 +14°C° 0 mm 4 mps 760 mmHg 89%
    02:00 +13°C° 0 mm 4 mps 760 mmHg 88%
    03:00 +13°C° 0 mm 4 mps 760 mmHg 87%
    04:00 +13°C° 0 mm 4 mps 761 mmHg 87%
    05:00 +12°C° 0 mm 3 mps 761 mmHg 87%
    06:00 +13°C° 0 mm 4 mps 761 mmHg 82%
    07:00 +15°C° 0 mm 4 mps 762 mmHg 77%
    08:00 +17°C° 0 mm 4 mps 762 mmHg 73%
    09:00 +19°C° 0 mm 4 mps 762 mmHg 64%
    10:00 +20°C° 0 mm 5 mps 762 mmHg 55%
    11:00 +22°C° 0 mm 5 mps 762 mmHg 46%
    12:00 +22°C° 0 mm 5 mps 762 mmHg 43%
    13:00 +23°C° 0 mm 5 mps 762 mmHg 40%
    14:00 +25°C° 0 mm 5 mps 763 mmHg 37%
    15:00 +23°C° 0 mm 4 mps 763 mmHg 40%
    16:00 +23°C° 0 mm 4 mps 763 mmHg 42%
    17:00 +22°C° 0 mm 4 mps 763 mmHg 44%
    18:00 +21°C° 0 mm 3 mps 763 mmHg 49%
    19:00 +20°C° 0 mm 2 mps 764 mmHg 54%
    20:00 +19°C° 0 mm 2 mps 764 mmHg 59%
    21:00 +18°C° 0 mm 2 mps 765 mmHg 61%
    22:00 +18°C° 0 mm 2 mps 765 mmHg 63%
    23:00 +17°C° 0 mm 3 mps 765 mmHg 65%

    Day after tomorrow, 19 October, Saturday

    Time Temperature Precipitation Wind Pressure Humidity
    00:00 +16°C° 0 mm 3 mps 765 mmHg 65%
    01:00 +16°C° 0 mm 2 mps 765 mmHg 66%
    02:00 +15°C° 0 mm 2 mps 765 mmHg 67%
    03:00 +15°C° 0 mm 2 mps 765 mmHg 67%
    04:00 +14°C° 0 mm 2 mps 766 mmHg 66%
    05:00 +14°C° 0 mm 2 mps 766 mmHg 66%
    06:00 +15°C° 0 mm 2 mps 766 mmHg 60%
    07:00 +16°C° 0 mm 2 mps 767 mmHg 54%
    08:00 +17°C° 0 mm 2 mps 767 mmHg 47%
    09:00 +19°C° 0 mm 2 mps 767 mmHg 42%
    10:00 +21°C° 0 mm 2 mps 767 mmHg 37%
    11:00 +24°C° 0 mm 2 mps 767 mmHg 31%
    12:00 +24°C° 0 mm 3 mps 766 mmHg 32%
    13:00 +24°C° 0 mm 3 mps 766 mmHg 33%
    14:00 +23°C° 0 mm 4 mps 766 mmHg 34%
    15:00 +22°C° 0 mm 4 mps 765 mmHg 39%
    16:00 +21°C° 0 mm 4 mps 765 mmHg 44%
    17:00 +20°C° 0 mm 4 mps 765 mmHg 49%
    18:00 +19°C° 0 mm 4 mps 765 mmHg 51%
    19:00 +18°C° 0 mm 4 mps 765 mmHg 53%
    20:00 +17°C° 0 mm 4 mps 766 mmHg 55%
    21:00 +17°C° 0 mm 4 mps 766 mmHg 57%
    22:00 +17°C° 0 mm 4 mps 765 mmHg 58%
    23:00 +15°C° 0 mm 4 mps 765 mmHg 59%

    20 October, Sunday

    Time Temperature Precipitation Wind Pressure Humidity
    00:00 +15°C° 0 mm 4 mps 765 mmHg 62%
    01:00 +15°C° 0 mm 4 mps 764 mmHg 65%
    02:00 +14°C° 0 mm 4 mps 764 mmHg 69%
    03:00 +14°C° 0 mm 4 mps 764 mmHg 67%
    04:00 +14°C° 0 mm 4 mps 764 mmHg 66%
    05:00 +14°C° 0 mm 4 mps 765 mmHg 65%
    06:00 +15°C° 0 mm 4 mps 765 mmHg 61%
    07:00 +17°C° 0 mm 4 mps 765 mmHg 57%
    08:00 +17°C° 0 mm 4 mps 765 mmHg 54%
    09:00 +18°C° 0 mm 3 mps 765 mmHg 49%
    10:00 +19°C° 0 mm 3 mps 765 mmHg 44%
    11:00 +20°C° 0 mm 3 mps 765 mmHg 39%
    12:00 +20°C° 0 mm 3 mps 764 mmHg 36%
    13:00 +20°C° 0 mm 3 mps 764 mmHg 33%
    14:00 +21°C° 0 mm 3 mps 764 mmHg 30%
    15:00 +20°C° 0 mm 2 mps 763 mmHg 32%
    16:00 +20°C° 0 mm 2 mps 763 mmHg 34%
    17:00 +19°C° 0 mm 2 mps 763 mmHg 36%
    18:00 +19°C° 0 mm 3 mps 763 mmHg 40%
    19:00 +18°C° 0 mm 4 mps 763 mmHg 43%
    20:00 +17°C° 0 mm 4 mps 763 mmHg 47%
    21:00 +16°C° 0.1 mm 5 mps 763 mmHg 53%
    22:00 +16°C° 0.1 mm 5 mps 763 mmHg 59%
    23:00 +15°C° 0.1 mm 5 mps 763 mmHg 65%

    21 October, Monday

    Time Temperature Precipitation Wind Pressure Humidity
    00:00 +15°C° 0.1 mm 4 mps 763 mmHg 64%
    01:00 +15°C° 0.1 mm 4 mps 763 mmHg 64%
    02:00 +16°C° 0.1 mm 3 mps 762 mmHg 63%
    03:00 +16°C° 0.4 mm 3 mps 762 mmHg 66%
    04:00 +14°C° 0.4 mm 3 mps 762 mmHg 70%
    05:00 +14°C° 0.4 mm 3 mps 762 mmHg 73%
    06:00 +14°C° 0.4 mm 3 mps 762 mmHg 69%
    07:00 +16°C° 0.4 mm 2 mps 762 mmHg 66%
    08:00 +16°C° 0.4 mm 2 mps 762 mmHg 62%
    09:00 +17°C° 0.2 mm 2 mps 763 mmHg 60%
    10:00 +17°C° 0.2 mm 2 mps 763 mmHg 57%
    11:00 +17°C° 0.2 mm 2 mps 763 mmHg 55%
    12:00 +18°C° 0.1 mm 2 mps 763 mmHg 55%
    13:00 +18°C° 0.1 mm 2 mps 763 mmHg 56%
    14:00 +18°C° 0.1 mm 2 mps 763 mmHg 56%
    15:00 +18°C° 0 mm 2 mps 762 mmHg 56%
    16:00 +18°C° 0 mm 2 mps 762 mmHg 56%
    17:00 +19°C° 0 mm 1 mps 762 mmHg 56%
    18:00 +18°C° 0 mm 1 mps 762 mmHg 59%
    19:00 +16°C° 0 mm 1 mps 762 mmHg 62%
    20:00 +16°C° 0 mm 1 mps 762 mmHg 65%
    21:00 +15°C° 0 mm 1 mps 762 mmHg 66%
    22:00 +15°C° 0 mm 1 mps 763 mmHg 67%
    23:00 +15°C° 0 mm 2 mps 763 mmHg 68%

    22 October, Tuesday

    Time Temperature Precipitation Wind Pressure Humidity
    00:00 +15°C° 0 mm 2 mps 763 mmHg 70%
    01:00 +13°C° 0 mm 3 mps 763 mmHg 72%
    02:00 +13°C° 0 mm 3 mps 763 mmHg 74%
    03:00 +13°C° 0 mm 3 mps 763 mmHg 75%
    04:00 +13°C° 0 mm 3 mps 763 mmHg 76%
    05:00 +13°C° 0 mm 3 mps 763 mmHg 78%
    06:00 +14°C° 0 mm 3 mps 764 mmHg 64%
    07:00 +16°C° 0 mm 3 mps 764 mmHg 51%
    08:00 +17°C° 0 mm 3 mps 764 mmHg 38%
    09:00 +18°C° 0 mm 3 mps 764 mmHg 34%
    10:00 +20°C° 0 mm 3 mps 764 mmHg 29%
    11:00 +21°C° 0 mm 3 mps 764 mmHg 25%
    12:00 +21°C° 0 mm 3 mps 763 mmHg 25%
    13:00 +22°C° 0 mm 3 mps 763 mmHg 26%
    14:00 +22°C° 0 mm 3 mps 762 mmHg 26%
    15:00 +22°C° 0 mm 3 mps 762 mmHg 28%
    16:00 +21°C° 0 mm 3 mps 762 mmHg 30%
    17:00 +20°C° 0 mm 3 mps 762 mmHg 33%
    18:00 +19°C° 0 mm 2 mps 762 mmHg 36%
    19:00 +18°C° 0 mm 2 mps 762 mmHg 39%
    20:00 +18°C° 0 mm 1 mps 762 mmHg 42%
    21:00 +17°C° 0 mm 2 mps 762 mmHg 45%
    22:00 +16°C° 0 mm 2 mps 763 mmHg 48%
    23:00 +16°C° 0 mm 2 mps 763 mmHg 51%
    Show more